Location: Eldred Sherwood Park Lake Dam
(42.9416°N, 93.5655°W)
Time: 20:51:36
(UTC+00:00)

BlueWalker 3 - Pass Details

Date: 11 October 2024
Orbit: 470 x 481 km, 53.2° (Epoch: 11 November)

Event Time Altitude Azimuth Distance (km) Brightness Sun altitude
Exits shadow 10:09:39 23° 14° (NNE) 1,045 3.8 -25.2°
Drops below altitude 10° 10:11:35 10° 39° (NE) 1,633 5.2 -24.8°
Sets 10:13:56 0° 51° (NE) 2,513 6.5 -24.4°
